This demonstration page uses our WeatherBlox Daily Observations layout. Learn more.

Left ArrowRight Arrow

Hourly Observations for March 7, 2022

Temp ( °F °C ) Dew Point ( °F °C ) Humidity (%) Winds ( mph kmh ) Pressure ( in mb ) Visibility ( mi km ) Precip ( " mm )
12:05 am 00:05 Clear 45 7.2 27 -2.8 49 49 ENE 14 22 30.14 1021 10 16 0.00 0.00
12:53 am 00:53 Clear 42 5.6 28 -2.2 58 58 ENE 10 17 30.05 1018 10 16 0.00 0.00
1:53 am 01:53 Clear 38 3.3 28 -2.2 68 68 E 8 13 30.09 1019 10 16 0.00 0.00
2:53 am 02:53 Clear 35 1.7 27 -2.8 72 72 ENE 8 13 30.12 1020 10 16 0.00 0.00
3:53 am 03:53 Clear 33 0.6 25 -3.9 72 72 ENE 6 9 30.15 1021 10 16 0.00 0.00
4:53 am 04:53 Clear 32 0 22 -5.6 66 66 ENE 6 9 30.18 1022 10 16 0.00 0.00
5:53 am 05:53 Clear 32 0 18 -7.8 56 56 ENE 9 15 30.22 1023 10 16 0.00 0.00
6:53 am 06:53 Clear 30 -1.1 19 -7.2 64 64 ENE 12 19 30.26 1025 10 16 0.00 0.00
7:53 am 07:53 Sunny 29 -1.7 18 -7.8 63 63 ENE 12 19 30.30 1026 10 16 0.00 0.00
8:53 am 08:53 Sunny 31 -0.6 18 -7.8 59 59 E 8 13 30.33 1027 10 16 0.00 0.00
9:53 am 09:53 Sunny 35 1.7 19 -7.2 52 52 E 9 15 30.35 1028 10 16 0.00 0.00
10:53 am 10:53 Sunny 38 3.3 19 -7.2 46 46 E 7 11 30.34 1028 10 16 0.00 0.00
11:53 am 11:53 Sunny 40 4.4 19 -7.2 43 43 undefined N/A 30.32 1027 10 16 0.00 0.00
12:53 pm 12:53 Sunny 42 5.6 18 -7.8 38 38 E 7 11 30.29 1026 10 16 0.00 0.00
1:53 pm 13:53 Sunny 44 6.7 17 -8.3 34 34 E 7 11 30.23 1024 10 16 0.00 0.00
2:53 pm 14:53 Sunny 47 8.3 16 -8.9 29 29 E 8 13 30.19 1022 10 16 0.00 0.00
3:53 pm 15:53 Sunny 48 8.9 15 -9.4 27 27 ENE 7 11 30.15 1021 10 16 0.00 0.00
4:53 pm 16:53 Sunny 50 10 14 -10 24 24 E 9 15 30.12 1020 10 16 0.00 0.00
5:53 pm 17:53 Sunny 48 8.9 14 -10 25 25 ESE 13 20 30.11 1020 10 16 0.00 0.00
6:53 pm 18:53 Sunny 46 7.8 14 -10 27 27 ESE 13 20 30.12 1020 10 16 0.00 0.00
7:53 pm 19:53 Clear 44 6.7 14 -10 30 30 E 9 15 30.13 1020 10 16 0.00 0.00
8:53 pm 20:53 Clear 43 6.1 14 -10 31 31 E 10 17 30.13 1020 10 16 0.00 0.00
9:53 pm 21:53 Clear 42 5.6 14 -10 32 32 ENE 9 15 30.12 1020 10 16 0.00 0.00
10:53 pm 22:53 Clear 41 5 14 -10 33 33 E 10 17 30.11 1020 10 16 0.00 0.00
11:53 pm 23:53 Clear 40 4.4 14 -10 35 35 E 10 17 30.10 1019 10 16 0.00 0.00

Powered by AerisWeather